Regional Weather Roundup
Issued by NWS

Home | Current Version | Previous Version | Text Only | Print | Product List | Glossary Off
Versions: 1 2 3 4 5 6 7 8 9 10 11 12 13 14 15 16 17 18 19 20 21 22 23 24 25 26 27 28 29 30 31 32 33 34 35 36 37 38 39 40 41 42 43 44 45 46 47 48 49 50

000
ASUS45 KBOU 042207
RWRCO

WEATHER ROUNDUP FOR COLORADO
NATIONAL WEATHER SERVICE DENVER/BOULDER CO
400 PM MDT FRI SEP 04 2015

NOTE: "FAIR" INDICATES FEW OR NO CLOUDS BELOW 12000 FEET WITH NO
SIGNIFICANT WEATHER AND/OR OBSTRUCTIONS TO VISIBILITY.

COZ001>005-013-030-031-042300-
...NORTHWEST COLORADO...

CITY           SKY/WX    TMP DP  RH WIND       PRES   REMARKS
CRAIG          CLOUDY    75  42  30 SW18G25   30.03F
HAYDEN         PTSUNNY   72  43  35 SE20G30   30.06F
MEEKER         CLOUDY    72  46  39 S10       30.06F
MOUNT WERNER   NOT AVBL
STEAMBOAT SPGS PTSUNNY   68  47  47 E15G21    30.10F
WALDEN         CLOUDY    61  41  48 S9        30.20S
$$

COZ006>008-011-042300-
...WEST CENTRAL VALLEYS...

CITY           SKY/WX    TMP DP  RH WIND       PRES   REMARKS
GRAND JUNCTION LGT RAIN  64  57  78 E7        30.00R
MONTROSE       PTSUNNY   73  50  44 S10       30.05F
EAGLE          PTSUNNY   64  52  63 CALM      30.15F
RIFLE          CLOUDY    70  51  51 E16       30.02F
DELTA          PTSUNNY   79  49  34 NE5       30.01F
NUCLA          PTSUNNY   63  55  77 N13G18    30.11F
$$

COZ017>023-064>068-042300-
...SOUTHWEST COLORADO...

CITY           SKY/WX    TMP DP  RH WIND       PRES   REMARKS
DURANGO        HVY RAIN  62  53  72 SE8       30.14F
CORTEZ         PTSUNNY   77  52  41 CALM      30.05F
PAGOSA SPRINGS CLOUDY    65  46  49 SW3       30.22F
TELLURIDE      PTSUNNY   62  45  53 SE6       30.26F
WOLF CREEK PAS NOT AVBL
$$

COZ009-010-012-014-032>034-037-058>063-042300-
...CENTRAL COLORADO...

CITY           SKY/WX    TMP DP  RH WIND       PRES   REMARKS
ASPEN          CLOUDY    65  47  52 CALM      30.16F
BUENA VISTA    LGT RAIN  64  44  48 SE15      30.20F
COPPER MTN     LGT RAIN  46  41  81 E6        30.47F VSB<1/4
BERTHOUD PASS  RAIN      39  28  65 S5        30.52F
COTTONWOOD PAS CLOUDY    61  43  51 E7        30.33F
GUNNISON       PTSUNNY   64  48  55 NW10      30.20F
KREMMLING      LGT RAIN  59  52  77 CALM      30.21F
LEADVILLE      PTSUNNY   51  47  86 CALM      30.32F
MONARCH PASS   CLOUDY    50  43  76 S16       30.56F
SALIDA         CLOUDY    69  47  45 SW8       30.23F
SUNLIGHT       CLOUDY    54  46  76 CALM      30.39F
WILKERSON PASS LGT RAIN  52  41  66 W5        30.45F
$$

COZ069>075-042300-
...SAN LUIS VALLEY/SANGRE DE CRISTO MOUNTAINS...

CITY           SKY/WX    TMP DP  RH WIND       PRES   REMARKS
ALAMOSA        CLOUDY    73  43  33 S17       30.15F
LA VETA PASS   PTSUNNY   63  39  42 S9G17     30.36F
SAGUACHE       CLOUDY    68  46  45 NW7       30.20F
$$

COZ035-036-038>040-042300-
...NORTHERN COLORADO FRONT RANGE...

CITY           SKY/WX    TMP DP  RH WIND       PRES   REMARKS
DENVER INTL AP PTSUNNY   86  34  15 S18G25    29.95F
DMNS CITY PARK   N/A     82  44  25 S5        29.94F
AURORA         PTSUNNY   85  34  16 S10       29.97F
FRONT RANGE AP PTSUNNY   86  34  15 MISG      29.97F
ERIE MUNI ARPT CLOUDY    84  37  18 CALM      29.94F
BOULDER MUN AP CLOUDY    82  36  18 E8        29.96F
CENTENNIAL     CLOUDY    83  41  22 S10G18    29.98F
BROOMFIELD     PTSUNNY   82  39  21 SE6       29.99F
FORT COLLINS   PTSUNNY   84  43  23 SE13      29.92S
LONGMONT       PTSUNNY   80  45  28 W8        29.97R
$$

COZ041-046-047-076>085-087-088-042300-
...PIKES PEAK/PALMER DIVIDE AND SOUTHERN FOOTHILLS...

CITY           SKY/WX    TMP DP  RH WIND       PRES   REMARKS
COLO. SPRINGS  PTSUNNY   85  40  20 S20       30.04F
A. F. ACADEMY  PTSUNNY   80  40  23 S15G25    30.05F
ELLICOTT       PTSUNNY  N/A N/A N/A S13G21    30.03F
FALCON         PTSUNNY   79  41  25 SE13G20   30.11F
FORT CARSON    PTSUNNY   82  46  28 SE12      30.01F
LIMON          SUNNY     88  40  18 SE15G35   29.97F
MONUMENT HILL  PTSUNNY   73  37  27 S13       30.10F
TRINIDAD       PTSUNNY   84  44  24 MISG      30.01F
$$

COZ042>045-048>051-090-091-042300-
...NORTHEAST COLORADO...

CITY           SKY/WX    TMP DP  RH WIND       PRES   REMARKS
GREELEY ARPT   PTSUNNY   86  43  22 E10       29.92F
AKRON          MOSUNNY   90  39  16 S13       29.92F
BURLINGTON     MOSUNNY   89  45  21 S9G21     29.91F
WRAY           CLOUDY    96  38  13 SE7       29.87F
STERLING       MOSUNNY   93  43  17 CALM      29.86F
HOLYOKE        SUNNY     95  52  23 SE14      29.88S
FORT MORGAN    MOSUNNY   91  34  13 E5        29.92F
$$

COZ086-089-092>099-042300-
...SOUTHEAST COLORADO...

CITY           SKY/WX    TMP DP  RH WIND       PRES   REMARKS
PUEBLO         PTSUNNY   88  43  20 VRB3      29.92F
LA JUNTA       PTSUNNY   93  44  18 SE10G17   29.87F
LAMAR          PTSUNNY   94  52  24 SE12      29.84F
SPRINGFIELD      N/A     93  46  19 SW21G29   29.92F
$$




USA.gov is the U.S. government's official web portal to all federal, state and local government web resources and services.